Time,TemperatureF,DewpointF,PressureIn,WindDirection,WindDirectionDegrees,WindSpeedMPH,WindSpeedGustMPH,Humidity,HourlyPrecipIn,Conditions,Clouds,dailyrainin,SoftwareType,DateUTC
2013-02-11 01:12:00,34.3,30.0,29.83,WNW,292,6.3,-999.0,84,-99.99,,,0.00,Acu-Link.com,2013-02-11 07:12:00,
2013-02-11 01:27:00,34.0,30.5,29.81,NW,315,10.9,-999.0,87,-99.99,,,0.00,Acu-Link.com,2013-02-11 07:27:00,
2013-02-11 01:42:00,33.3,28.4,29.83,WSW,247,7.8,-999.0,82,-99.99,,,0.00,Acu-Link.com,2013-02-11 07:42:00,
2013-02-11 01:57:00,33.1,29.1,29.83,NNW,337,11.4,-999.0,85,-99.99,,,0.00,Acu-Link.com,2013-02-11 07:57:00,
2013-02-11 02:13:00,32.5,28.8,29.84,NW,315,8.3,-999.0,86,-99.99,,,0.00,Acu-Link.com,2013-02-11 08:13:00,
2013-02-11 02:28:00,32.0,28.9,29.85,NW,315,5.8,-999.0,88,-99.99,,,0.00,Acu-Link.com,2013-02-11 08:28:00,
2013-02-11 02:43:00,31.8,28.1,29.87,NNW,337,12.5,-999.0,86,-99.99,,,0.00,Acu-Link.com,2013-02-11 08:43:00,
2013-02-11 02:58:00,31.1,27.7,29.88,West,270,9.9,-999.0,87,-99.99,,,0.00,Acu-Link.com,2013-02-11 08:58:00,
2013-02-11 03:17:00,31.1,28.0,29.87,NNW,337,10.4,-999.0,88,-99.99,,,0.00,Acu-Link.com,2013-02-11 09:17:00,
2013-02-11 03:32:00,30.7,27.8,29.89,WNW,292,11.4,-999.0,89,-99.99,,,0.00,Acu-Link.com,2013-02-11 09:32:00,
2013-02-11 03:47:00,30.2,29.7,29.90,NNW,337,2.2,-999.0,98,-99.99,,,0.00,Acu-Link.com,2013-02-11 09:47:00,
2013-02-11 04:03:00,29.5,29.0,29.89,West,270,4.2,-999.0,98,-99.99,,,0.00,Acu-Link.com,2013-02-11 10:03:00,
2013-02-11 04:18:00,30.6,30.1,29.90,NW,315,6.8,-999.0,98,-99.99,,,0.00,Acu-Link.com,2013-02-11 10:18:00,
2013-02-11 04:33:00,31.1,28.8,29.90,West,270,8.9,-999.0,91,-99.99,,,0.00,Acu-Link.com,2013-02-11 10:33:00,
2013-02-11 04:48:00,31.1,28.5,29.91,NNW,337,8.9,-999.0,90,-99.99,,,0.00,Acu-Link.com,2013-02-11 10:48:00,
2013-02-11 05:03:00,30.9,28.0,29.92,NW,315,17.1,-999.0,89,-99.99,,,0.00,Acu-Link.com,2013-02-11 11:03:00,
2013-02-11 05:18:00,31.1,28.2,29.92,WNW,292,16.1,-999.0,89,-99.99,,,0.00,Acu-Link.com,2013-02-11 11:18:00,
2013-02-11 05:34:00,31.1,28.2,29.93,West,270,9.4,-999.0,89,-99.99,,,0.00,Acu-Link.com,2013-02-11 11:34:00,
2013-02-11 05:49:00,30.4,29.9,29.95,WSW,247,5.3,-999.0,98,-99.99,,,0.00,Acu-Link.com,2013-02-11 11:49:00,
2013-02-11 06:04:00,30.4,28.1,29.94,WNW,292,13.0,-999.0,91,-99.99,,,0.00,Acu-Link.com,2013-02-11 12:04:00,
2013-02-11 06:19:00,30.4,27.8,29.95,WNW,292,12.5,-999.0,90,-99.99,,,0.00,Acu-Link.com,2013-02-11 12:19:00,
2013-02-11 06:34:00,30.2,29.7,29.96,WNW,292,9.9,-999.0,98,-99.99,,,0.00,Acu-Link.com,2013-02-11 12:34:00,
2013-02-11 06:50:00,30.0,29.5,29.97,North,0,8.3,-999.0,98,-99.99,,,0.00,Acu-Link.com,2013-02-11 12:50:00,
2013-02-11 07:05:00,29.5,29.0,29.97,NNW,337,6.8,-999.0,98,-99.99,,,0.00,Acu-Link.com,2013-02-11 13:05:00,
2013-02-11 07:20:00,29.3,28.8,29.98,WNW,292,3.7,-999.0,98,-99.99,,,0.00,Acu-Link.com,2013-02-11 13:20:00,
2013-02-11 07:35:00,28.8,28.3,30.00,NW,315,3.2,-999.0,98,-99.99,,,0.00,Acu-Link.com,2013-02-11 13:35:00,
2013-02-11 07:50:00,29.3,28.8,30.00,WNW,292,3.7,-999.0,98,-99.99,,,0.00,Acu-Link.com,2013-02-11 13:50:00,
2013-02-11 08:06:00,30.4,27.8,30.00,West,270,5.3,-999.0,90,-99.99,,,0.00,Acu-Link.com,2013-02-11 14:06:00,
2013-02-11 08:21:00,31.5,28.4,30.01,WNW,292,5.3,-999.0,88,-99.99,,,0.00,Acu-Link.com,2013-02-11 14:21:00,
2013-02-11 08:36:00,31.8,28.4,30.01,NNW,337,7.3,-999.0,87,-99.99,,,0.00,Acu-Link.com,2013-02-11 14:36:00,
2013-02-11 08:51:00,32.5,28.2,30.01,NNW,337,7.8,-999.0,84,-99.99,,,0.00,Acu-Link.com,2013-02-11 14:51:00,
2013-02-11 09:06:00,32.7,28.4,30.03,West,270,5.8,-999.0,84,-99.99,,,0.00,Acu-Link.com,2013-02-11 15:06:00,
2013-02-11 09:22:00,33.6,28.4,30.03,WNW,292,7.8,-999.0,81,-99.99,,,0.00,Acu-Link.com,2013-02-11 15:22:00,
2013-02-11 09:37:00,34.0,28.5,30.03,NNW,337,9.4,-999.0,80,-99.99,,,0.00,Acu-Link.com,2013-02-11 15:37:00,
2013-02-11 09:52:00,35.2,29.7,30.04,WNW,292,6.3,-999.0,80,-99.99,,,0.00,Acu-Link.com,2013-02-11 15:52:00,
2013-02-11 10:07:00,35.4,29.5,30.04,NW,315,9.4,-999.0,79,-99.99,,,0.00,Acu-Link.com,2013-02-11 16:07:00,
2013-02-11 10:23:00,35.1,29.3,30.04,West,270,7.3,-999.0,79,-99.99,,,0.00,Acu-Link.com,2013-02-11 16:23:00,
2013-02-11 10:38:00,36.0,29.8,30.04,NW,315,2.2,-999.0,78,-99.99,,,0.00,Acu-Link.com,2013-02-11 16:38:00,
2013-02-11 10:53:00,37.4,30.5,30.04,NNW,337,9.9,-999.0,76,-99.99,,,0.00,Acu-Link.com,2013-02-11 16:53:00,
2013-02-11 11:08:00,36.9,30.1,30.05,NNW,337,9.4,-999.0,76,-99.99,,,0.00,Acu-Link.com,2013-02-11 17:08:00,
2013-02-11 11:24:00,36.9,30.1,30.06,NW,315,5.8,-999.0,76,-99.99,,,0.00,Acu-Link.com,2013-02-11 17:24:00,
2013-02-11 11:39:00,38.7,31.1,30.06,NW,315,7.8,-999.0,74,-99.99,,,0.00,Acu-Link.com,2013-02-11 17:39:00,
2013-02-11 11:54:00,38.1,30.6,30.06,NW,315,6.3,-999.0,74,-99.99,,,0.00,Acu-Link.com,2013-02-11 17:54:00,
2013-02-11 12:09:00,39.2,31.3,30.05,SSW,202,5.3,-999.0,73,-99.99,,,0.00,Acu-Link.com,2013-02-11 18:09:00,
2013-02-11 12:25:00,39.4,30.8,30.05,WSW,247,5.3,-999.0,71,-99.99,,,0.00,Acu-Link.com,2013-02-11 18:25:00,
2013-02-11 12:40:00,40.1,31.5,30.05,NNW,337,5.8,-999.0,71,-99.99,,,0.00,Acu-Link.com,2013-02-11 18:40:00,
2013-02-11 12:55:00,40.3,31.3,30.04,West,270,7.8,-999.0,70,-99.99,,,0.00,Acu-Link.com,2013-02-11 18:55:00,
2013-02-11 13:10:00,40.6,31.6,30.04,WNW,292,6.8,-999.0,70,-99.99,,,0.00,Acu-Link.com,2013-02-11 19:10:00,
2013-02-11 13:25:00,41.4,32.0,30.04,NW,315,6.3,-999.0,69,-99.99,,,0.00,Acu-Link.com,2013-02-11 19:25:00,
2013-02-11 13:41:00,40.8,31.4,30.05,North,0,3.2,-999.0,69,-99.99,,,0.00,Acu-Link.com,2013-02-11 19:41:00,
2013-02-11 13:56:00,41.2,32.5,30.03,ENE,67,4.2,-999.0,71,-99.99,,,0.00,Acu-Link.com,2013-02-11 19:56:00,
2013-02-11 14:11:00,41.2,31.8,30.03,NNW,337,4.7,-999.0,69,-99.99,,,0.00,Acu-Link.com,2013-02-11 20:11:00,
2013-02-11 14:27:00,40.6,31.2,30.03,West,270,2.7,-999.0,69,-99.99,,,0.00,Acu-Link.com,2013-02-11 20:27:00,
2013-02-11 14:42:00,41.0,32.0,30.02,NW,315,6.3,-999.0,70,-99.99,,,0.00,Acu-Link.com,2013-02-11 20:42:00,
2013-02-11 14:57:00,41.2,32.2,30.03,West,270,4.2,-999.0,70,-99.99,,,0.00,Acu-Link.com,2013-02-11 20:57:00,
2013-02-11 15:13:00,40.6,31.2,30.03,WNW,292,5.3,-999.0,69,-99.99,,,0.00,Acu-Link.com,2013-02-11 21:13:00,
2013-02-11 15:28:00,40.6,31.2,30.03,NW,315,6.8,-999.0,69,-99.99,,,0.00,Acu-Link.com,2013-02-11 21:28:00,
2013-02-11 15:43:00,41.2,31.8,30.03,WNW,292,6.3,-999.0,69,-99.99,,,0.00,Acu-Link.com,2013-02-11 21:43:00,
2013-02-11 15:58:00,41.0,32.0,30.03,NW,315,1.7,-999.0,70,-99.99,,,0.00,Acu-Link.com,2013-02-11 21:58:00,
2013-02-11 16:13:00,40.8,31.8,30.02,NW,315,5.3,-999.0,70,-99.99,,,0.00,Acu-Link.com,2013-02-11 22:13:00,
2013-02-11 16:29:00,40.3,31.3,30.03,NW,315,5.3,-999.0,70,-99.99,,,0.00,Acu-Link.com,2013-02-11 22:29:00,
2013-02-11 16:44:00,39.9,31.3,30.02,West,270,6.3,-999.0,71,-99.99,,,0.00,Acu-Link.com,2013-02-11 22:44:00,
2013-02-11 16:59:00,39.7,31.4,30.02,West,270,5.3,-999.0,72,-99.99,,,0.00,Acu-Link.com,2013-02-11 22:59:00,
2013-02-11 17:14:00,38.5,30.9,30.02,NNW,337,5.3,-999.0,74,-99.99,,,0.00,Acu-Link.com,2013-02-11 23:14:00,
2013-02-11 17:29:00,37.4,30.5,30.03,NW,315,3.7,-999.0,76,-99.99,,,0.00,Acu-Link.com,2013-02-11 23:29:00,
2013-02-11 17:45:00,36.5,30.0,30.04,West,270,2.2,-999.0,77,-99.99,,,0.00,Acu-Link.com,2013-02-11 23:45:00,
2013-02-11 18:00:00,35.4,29.5,30.04,WNW,292,1.7,-999.0,79,-99.99,,,0.00,Acu-Link.com,2013-02-12 00:00:00,
2013-02-11 18:15:00,34.3,29.4,30.04,WNW,292,2.7,-999.0,82,-99.99,,,0.00,Acu-Link.com,2013-02-12 00:15:00,
2013-02-11 18:30:00,34.2,29.3,30.04,NW,315,3.2,-999.0,82,-99.99,,,0.00,Acu-Link.com,2013-02-12 00:30:00,
2013-02-11 18:45:00,34.0,29.1,30.05,WNW,292,2.7,-999.0,82,-99.99,,,0.00,Acu-Link.com,2013-02-12 00:45:00,
2013-02-11 19:01:00,32.9,28.6,30.06,NW,315,1.7,-999.0,84,-99.99,,,0.00,Acu-Link.com,2013-02-12 01:01:00,
2013-02-11 19:16:00,31.8,28.4,30.07,NW,315,2.2,-999.0,87,-99.99,,,0.00,Acu-Link.com,2013-02-12 01:16:00,
2013-02-11 19:31:00,31.1,28.5,30.06,NNW,337,3.2,-999.0,90,-99.99,,,0.00,Acu-Link.com,2013-02-12 01:31:00,
2013-02-11 19:46:00,30.6,30.1,30.06,NW,315,3.7,-999.0,98,-99.99,,,0.00,Acu-Link.com,2013-02-12 01:46:00,
2013-02-11 20:01:00,30.2,29.7,30.07,North,0,2.7,-999.0,98,-99.99,,,0.00,Acu-Link.com,2013-02-12 02:01:00,
2013-02-11 20:17:00,29.5,29.0,30.06,NW,315,2.7,-999.0,98,-99.99,,,0.00,Acu-Link.com,2013-02-12 02:17:00,
2013-02-11 20:32:00,28.8,28.3,30.07,NW,315,2.7,-999.0,98,-99.99,,,0.00,Acu-Link.com,2013-02-12 02:32:00,
2013-02-11 20:47:00,28.4,27.9,30.08,WNW,292,2.2,-999.0,98,-99.99,,,0.00,Acu-Link.com,2013-02-12 02:47:00,
2013-02-11 21:02:00,28.4,27.9,30.08,NW,315,0.0,-999.0,98,-99.99,,,0.00,Acu-Link.com,2013-02-12 03:02:00,
2013-02-11 21:18:00,27.9,27.4,30.08,WNW,292,2.2,-999.0,98,-99.99,,,0.00,Acu-Link.com,2013-02-12 03:18:00,
2013-02-11 21:33:00,27.9,27.4,30.09,WNW,292,3.2,-999.0,98,-99.99,,,0.00,Acu-Link.com,2013-02-12 03:33:00,
2013-02-11 21:48:00,28.0,27.5,30.08,NW,315,2.2,-999.0,98,-99.99,,,0.00,Acu-Link.com,2013-02-12 03:48:00,
2013-02-11 22:03:00,27.5,27.0,30.08,WNW,292,2.2,-999.0,98,-99.99,,,0.00,Acu-Link.com,2013-02-12 04:03:00,
2013-02-11 22:18:00,27.1,26.6,30.09,West,270,0.0,-999.0,98,-99.99,,,0.00,Acu-Link.com,2013-02-12 04:18:00,
2013-02-11 22:34:00,26.4,25.9,30.10,West,270,0.0,-999.0,98,-99.99,,,0.00,Acu-Link.com,2013-02-12 04:34:00,
2013-02-11 22:49:00,25.9,25.4,30.10,WSW,247,0.0,-999.0,98,-99.99,,,0.00,Acu-Link.com,2013-02-12 04:49:00,
2013-02-11 23:04:00,25.7,25.2,30.11,WSW,247,2.2,-999.0,98,-99.99,,,0.00,Acu-Link.com,2013-02-12 05:04:00,
2013-02-11 23:20:00,25.7,25.2,30.11,West,270,2.2,-999.0,98,-99.99,,,0.00,Acu-Link.com,2013-02-12 05:20:00,
2013-02-11 23:35:00,25.5,25.0,30.10,WSW,247,2.2,-999.0,98,-99.99,,,0.00,Acu-Link.com,2013-02-12 05:35:00,
2013-02-11 23:50:00,25.5,25.0,30.10,SW,225,2.2,-999.0,98,-99.99,,,0.00,Acu-Link.com,2013-02-12 05:50:00,